SL-8 DEB

Satellite information

Favourite Embed

Satellite Type and Status

DEBRISIN ORBIT

Key statistics

Satellite SL-8 DEB at a glance.

Uptime

15304

Days in orbit

Revolutions

≈ 14.4

Per day

Orbit

LEO

Low Earth Orbit

Inclination

74.1

Latest

Satellite identification and parameters

Extended collection of information and parameters for SL-8 DEB.

Object identification

Identified? True

Debris? True

Object name: SL-8 DEB

International designator: 1983-103C

Object number (NORAD): 57165

Object ID (CCSDS): 57165

Country: COMMONWEALTH OF INDEPENDENT STATES (CIS)

Current information (Y/N): Y

RCS size: SMALL

Orbital parameters

Period: 100.263 minutes

Inclination: 74.0502 deg

SMA: 7149.149 km

Apoapsis: 786.326 km

Periapsis: 755.703 km

RAAN: 178.9037 deg

Eccentricy: 0.00214173

Argument of periapsis: 356.862 deg

Mean anomaly: 3.2395 deg

Mean motion: 14.36220791 rev/day

Mean motion (dot): 0.00000366 rev/day2

B* drag term: 0.00013389211 1/REarth

Two-line elements (TLE)

Creation date: Aug. 31, 2025, 2:26 a.m.

Reference frame: TEME

Reference center: EARTH

Epoch: Aug. 30, 2025, 1:22 p.m. UTC

TLE line 0: 0 SL-8 DEB

TLE line 1: 1 57165U 83103C 25242.55723264 .00000366 00000-0 13389-3 0 9990

TLE line 2: 2 57165 74.0502 178.9037 0021417 356.8620 3.2395 14.36220791616824

Live tracking on map

Real-time ground track for satellite SL-8 DEB.

In-orbit conjunctions

A list of the most updated potential collisions computed for object SL-8 DEB.

Target Orbit TCA Probability of collision Miss distance Type
COSMOS 1275 DEB LEO 2025-04-24 04:08:01 0.0004382688 40.0 (m) DEBRIS
SL-8 R/B LEO 2025-03-02 02:45:48 0.0001139287 271.0 (m) ROCKET BODY
FENGYUN 1C DEB SSO 2025-03-01 05:01:31 0.0001384746 178.0 (m) DEBRIS
IRIDIUM 26 LEO 2024-10-27 04:26:33 0.01291655 32.0 (m) PAYLOAD
SL-8 DEB LEO 2024-08-24 01:34:15 0.0001941724 87.0 (m) DEBRIS

Associated space launch

Military communications satellite

SL-8 DEB was lifted into orbit during the mission ‘Kosmos-3M | Strela-2M 33’, on board a Kosmos-3M space rocket.

The launch took place on Oct. 12, 1983, 12:20 a.m. from 132/1 (132L).

For more information about the launch, click the button.

Launch to space Kosmos-3M | Strela-2M 33
Kosmos-3M | Strela-2M 33

Agency: N/A

Status: Launch Successful

Launch date: Oct. 12, 1983, 12:20 a.m. UTC

Rocket: Kosmos-3M

Launch pad: 132/1 (132L)

Location: Plesetsk Cosmodrome, Russian Federation

...

Latest news about this satellite

There are no fresh news available about this satellite. Check back as we update our databases every day.


Newsletter sign-up

Weekly statistics, charts and insights to help you stay on top of the space industry.